• In Hungary
  • List of Countries
  • For 7 days
  • Water Temperature
  • Satellite Maps
  • Weather Map
  • News
  • Weather Widgets
  • user-avatar
    Login

    Hourly Weather Santa Lucía

    Today, 22 February, Thursday

    Time Temperature Precipitation Wind Pressure Humidity
    00:00 +25°C° 0 mm 1 mps 742 mmHg 69%
    01:00 +24°C° 0 mm 1 mps 742 mmHg 71%
    02:00 +24°C° 0 mm 1 mps 742 mmHg 74%
    03:00 +24°C° 0 mm 1 mps 742 mmHg 76%
    04:00 +23°C° 0 mm 1 mps 742 mmHg 77%
    05:00 +23°C° 0 mm 1 mps 742 mmHg 78%
    06:00 +22°C° 0 mm 1 mps 742 mmHg 80%
    07:00 +25°C° 0 mm 1 mps 742 mmHg 67%
    08:00 +28°C° 0 mm 1 mps 743 mmHg 54%
    09:00 +31°C° 0 mm 1 mps 743 mmHg 42%
    10:00 +34°C° 0 mm 2 mps 743 mmHg 34%
    11:00 +36°C° 0 mm 2 mps 742 mmHg 26%
    12:00 +38°C° 0 mm 3 mps 742 mmHg 19%
    13:00 +39°C° 0 mm 3 mps 741 mmHg 18%
    14:00 +39°C° 0 mm 3 mps 741 mmHg 17%
    15:00 +39°C° 0 mm 3 mps 740 mmHg 17%
    16:00 +37°C° 0 mm 3 mps 740 mmHg 22%
    17:00 +34°C° 0 mm 2 mps 740 mmHg 28%
    18:00 +31°C° 0 mm 2 mps 740 mmHg 33%
    19:00 +29°C° 0 mm 1 mps 740 mmHg 42%
    20:00 +28°C° 0 mm 1 mps 741 mmHg 50%
    21:00 +26°C° 0 mm 1 mps 742 mmHg 59%
    22:00 +25°C° 0 mm 1 mps 742 mmHg 63%
    23:00 +25°C° 0 mm 1 mps 742 mmHg 67%

    Tomorrow, 23 February, Friday

    Time Temperature Precipitation Wind Pressure Humidity
    00:00 +24°C° 0 mm 1 mps 742 mmHg 70%
    01:00 +24°C° 0 mm 1 mps 742 mmHg 72%
    02:00 +24°C° 0 mm 1 mps 742 mmHg 73%
    03:00 +23°C° 0 mm 1 mps 741 mmHg 75%
    04:00 +23°C° 0 mm 1 mps 741 mmHg 76%
    05:00 +23°C° 0 mm 1 mps 741 mmHg 78%
    06:00 +23°C° 0 mm 1 mps 741 mmHg 79%
    07:00 +26°C° 0 mm 1 mps 742 mmHg 67%
    08:00 +29°C° 0 mm 1 mps 742 mmHg 55%
    09:00 +32°C° 0 mm 1 mps 743 mmHg 43%
    10:00 +35°C° 0 mm 2 mps 742 mmHg 36%
    11:00 +36°C° 0 mm 2 mps 742 mmHg 29%
    12:00 +38°C° 0 mm 3 mps 741 mmHg 22%
    13:00 +39°C° 0 mm 3 mps 741 mmHg 23%
    14:00 +39°C° 0 mm 3 mps 740 mmHg 23%
    15:00 +39°C° 0 mm 3 mps 739 mmHg 23%
    16:00 +37°C° 0 mm 3 mps 739 mmHg 28%
    17:00 +35°C° 0 mm 2 mps 739 mmHg 34%
    18:00 +32°C° 0 mm 2 mps 739 mmHg 39%
    19:00 +31°C° 0 mm 1 mps 740 mmHg 46%
    20:00 +29°C° 0 mm 1 mps 741 mmHg 52%
    21:00 +28°C° 0 mm 1 mps 741 mmHg 59%
    22:00 +27°C° 0 mm 1 mps 741 mmHg 63%
    23:00 +26°C° 0 mm 1 mps 741 mmHg 67%

    Day after tomorrow, 24 February, Saturday

    Time Temperature Precipitation Wind Pressure Humidity
    00:00 +25°C° 0 mm 1 mps 741 mmHg 71%
    01:00 +25°C° 0 mm 1 mps 741 mmHg 72%
    02:00 +25°C° 0 mm 1 mps 740 mmHg 74%
    03:00 +24°C° 0 mm 1 mps 740 mmHg 75%
    04:00 +24°C° 0 mm 1 mps 740 mmHg 77%
    05:00 +23°C° 0 mm 1 mps 740 mmHg 78%
    06:00 +23°C° 0 mm 1 mps 740 mmHg 79%
    07:00 +26°C° 0 mm 1 mps 741 mmHg 67%
    08:00 +29°C° 0 mm 1 mps 742 mmHg 55%
    09:00 +32°C° 0 mm 1 mps 742 mmHg 43%
    10:00 +34°C° 0 mm 1 mps 742 mmHg 36%
    11:00 +36°C° 0 mm 1 mps 741 mmHg 28%
    12:00 +39°C° 0 mm 2 mps 740 mmHg 21%
    13:00 +39°C° 0 mm 2 mps 740 mmHg 21%
    14:00 +39°C° 0 mm 2 mps 739 mmHg 20%
    15:00 +39°C° 0 mm 2 mps 738 mmHg 19%
    16:00 +36°C° 0 mm 2 mps 738 mmHg 25%
    17:00 +34°C° 0 mm 2 mps 738 mmHg 30%
    18:00 +31°C° 0 mm 2 mps 738 mmHg 35%
    19:00 +29°C° 0 mm 1 mps 739 mmHg 44%
    20:00 +27°C° 0 mm 1 mps 740 mmHg 52%
    21:00 +25°C° 0 mm 1 mps 740 mmHg 61%
    22:00 +25°C° 0 mm 1 mps 740 mmHg 61%
    23:00 +24°C° 0 mm 1 mps 740 mmHg 62%

    25 February, Sunday

    Time Temperature Precipitation Wind Pressure Humidity
    00:00 +24°C° 0 mm 1 mps 740 mmHg 63%
    01:00 +24°C° 0 mm 1 mps 740 mmHg 63%
    02:00 +23°C° 0 mm 1 mps 740 mmHg 63%
    03:00 +23°C° 0 mm 1 mps 739 mmHg 62%
    04:00 +23°C° 0 mm 1 mps 740 mmHg 62%
    05:00 +22°C° 0 mm 1 mps 740 mmHg 62%
    06:00 +22°C° 0 mm 1 mps 740 mmHg 62%
    07:00 +26°C° 0 mm 1 mps 741 mmHg 53%
    08:00 +29°C° 0 mm 1 mps 741 mmHg 45%
    09:00 +31°C° 0 mm 0 mps 742 mmHg 36%
    10:00 +34°C° 0 mm 1 mps 741 mmHg 32%
    11:00 +36°C° 0 mm 1 mps 741 mmHg 28%
    12:00 +39°C° 0 mm 2 mps 740 mmHg 24%
    13:00 +38°C° 0 mm 2 mps 740 mmHg 25%
    14:00 +37°C° 0 mm 2 mps 739 mmHg 26%
    15:00 +37°C° 0 mm 2 mps 738 mmHg 27%
    16:00 +35°C° 0 mm 2 mps 738 mmHg 34%
    17:00 +32°C° 0 mm 2 mps 739 mmHg 40%
    18:00 +30°C° 0 mm 2 mps 739 mmHg 47%
    19:00 +29°C° 0 mm 1 mps 740 mmHg 53%
    20:00 +27°C° 0 mm 1 mps 741 mmHg 60%
    21:00 +24°C° 0 mm 0 mps 741 mmHg 66%
    22:00 +24°C° 0 mm 0 mps 741 mmHg 69%
    23:00 +23°C° 0 mm 0 mps 741 mmHg 71%

    26 February, Monday

    Time Temperature Precipitation Wind Pressure Humidity
    00:00 +22°C° 0 mm 0 mps 741 mmHg 74%
    01:00 +22°C° 0 mm 0 mps 741 mmHg 74%
    02:00 +24°C° 0 mm 1 mps 741 mmHg 75%
    03:00 +23°C° 0 mm 1 mps 740 mmHg 75%
    04:00 +23°C° 0 mm 1 mps 741 mmHg 74%
    05:00 +23°C° 0 mm 1 mps 741 mmHg 74%
    06:00 +22°C° 0 mm 1 mps 741 mmHg 73%
    07:00 +26°C° 0 mm 1 mps 742 mmHg 62%
    08:00 +29°C° 0 mm 1 mps 742 mmHg 50%
    09:00 +32°C° 0 mm 1 mps 743 mmHg 39%
    10:00 +34°C° 0 mm 1 mps 742 mmHg 33%
    11:00 +36°C° 0 mm 1 mps 742 mmHg 27%
    12:00 +39°C° 0 mm 2 mps 741 mmHg 21%
    13:00 +39°C° 0 mm 2 mps 740 mmHg 21%
    14:00 +39°C° 0 mm 2 mps 739 mmHg 22%
    15:00 +38°C° 0 mm 2 mps 739 mmHg 22%
    16:00 +36°C° 0 mm 2 mps 739 mmHg 28%
    17:00 +34°C° 0 mm 2 mps 739 mmHg 34%
    18:00 +31°C° 0 mm 1 mps 739 mmHg 40%
    19:00 +30°C° 0 mm 1 mps 740 mmHg 46%
    20:00 +28°C° 0 mm 1 mps 740 mmHg 52%
    21:00 +27°C° 0 mm 1 mps 741 mmHg 58%
    22:00 +26°C° 0 mm 1 mps 741 mmHg 62%
    23:00 +25°C° 0 mm 1 mps 741 mmHg 66%

    27 February, Tuesday

    Time Temperature Precipitation Wind Pressure Humidity
    00:00 +24°C° 0 mm 1 mps 741 mmHg 70%
    01:00 +24°C° 0 mm 1 mps 741 mmHg 72%
    02:00 +23°C° 0 mm 1 mps 740 mmHg 73%
    03:00 +23°C° 0 mm 1 mps 740 mmHg 74%
    04:00 +23°C° 0 mm 1 mps 740 mmHg 75%
    05:00 +23°C° 0 mm 1 mps 741 mmHg 76%
    06:00 +22°C° 0 mm 1 mps 741 mmHg 77%
    07:00 +26°C° 0 mm 1 mps 741 mmHg 66%
    08:00 +29°C° 0 mm 1 mps 742 mmHg 55%
    09:00 +32°C° 0 mm 1 mps 742 mmHg 44%
    10:00 +34°C° 0 mm 1 mps 742 mmHg 38%
    11:00 +36°C° 0 mm 1 mps 741 mmHg 32%
    12:00 +39°C° 0 mm 1 mps 741 mmHg 27%
    13:00 +37°C° 0 mm 1 mps 740 mmHg 29%
    14:00 +35°C° 0 mm 1 mps 739 mmHg 31%
    15:00 +34°C° 0 mm 1 mps 738 mmHg 34%
    16:00 +32°C° 0 mm 1 mps 738 mmHg 39%
    17:00 +31°C° 0 mm 1 mps 739 mmHg 45%
    18:00 +30°C° 0 mm 1 mps 739 mmHg 50%
    19:00 +28°C° 0 mm 1 mps 739 mmHg 56%
    20:00 +27°C° 0 mm 1 mps 740 mmHg 62%
    21:00 +26°C° 0 mm 1 mps 740 mmHg 67%
    22:00 +26°C° 0.1 mm 1 mps 740 mmHg 70%
    23:00 +26°C° 0.1 mm 1 mps 740 mmHg 73%
    Show more